Temp
-7 -8 -8 -7 -7 -6 -6 -5 -4 -4 -3 -4 -2 -3 -2 -2 -1 -0 -0 0 2 2 2 2 3 3 3 3 3 3 3 2 3 3 3 4 5 5 5 5 5 5 5 5
-7 -6 -7 -6 -6 -6 -6 -5 -5 -3 -4 -3 -1 -1 -1 -2 -0 -0 -0 1 1 2 2 2 3 3 3 3 2 3 3 1 2 3 3 4 4 5 6 6 5 5 5 5
-6 -6 -6 -6 -6 -6 -6 -5 -4 -4 -3 -2 -1 -1 -1 -1 -1 0 0 -0 1 2 3 2 2 2 2 3 3 2 1 1 2 3 3 4 4 4 4 5 5 5 4 5
-5 -6 -6 -6 -6 -6 -4 -4 -5 -3 -2 -1 -0 1 -1 -1 -0 0 0 2 1 2 3 2 1 2 1 1 3 2 2 1 2 2 2 1 2 3 4 4 4 4 4 4
-5 -6 -5 -6 -5 -5 -4 -3 -4 -2 0 0 -1 -1 -2 -1 -1 1 1 1 2 3 2 2 2 2 1 2 3 2 2 1 1 1 1 2 2 2 3 3 4 4 3 3
-4 -5 -5 -4 -4 -4 -4 -4 -3 -2 -1 1 -1 -0 -2 -3 -1 -1 -0 0 2 2 1 1 2 1 0 2 1 0 1 1 2 1 1 2 2 2 2 3 3 3 3 3
-4 -4 -4 -3 -4 -4 -3 -3 -1 -1 -1 1 -1 0 -3 -3 -2 -1 -0 0 1 1 1 1 2 1 2 2 2 1 2 2 2 2 2 2 2 2 1 2 3 2 3 3
-3 -3 -3 -3 -3 -2 -2 -2 -1 -0 0 1 -1 -2 -3 -3 -1 -1 -0 1 1 1 1 1 1 1 2 2 2 2 2 3 3 3 3 3 3 3 3 3 3 3 3 2
-3 -3 -3 -3 -2 -2 -2 -1 -0 1 2 2 -1 -2 -3 -2 -1 -1 -0 0 1 0 1 1 1 1 1 2 2 2 2 2 3 3 3 3 3 3 3 3 3 3 3 3
-3 -3 -2 -2 -1 -1 -1 -0 0 1 3 2 -1 -3 -3 -2 -2 -1 -1 1 1 1 1 1 1 1 2 2 2 2 2 2 3 3 3 3 3 3 3 3 3 3 3 3
-3 -2 -2 -1 -2 -2 -1 -1 -0 0 1 4 3 0 -2 -1 -1 -2 -0 0 0 1 1 1 2 2 2 2 2 2 2 2 2 2 2 2 3 2 2 2 2 3 3 3
-2 -2 -2 -1 -1 -1 -2 -2 -1 1 3 3 3 -0 -2 -2 -1 -1 -0 -0 0 1 1 2 2 2 2 2 2 2 3 3 3 2 2 2 2 2 2 2 2 2 2 2
-1 -1 -1 -0 -0 -1 -2 -1 -1 0 1 0 4 -0 -2 -2 -2 -1 0 0 0 1 1 1 0 1 1 1 1 2 2 2 2 2 2 1 1 1 1 1 1 1 1 2
-1 -2 -1 0 -2 -1 -1 -1 0 1 1 2 0 -1 -2 -2 -1 -1 -0 -0 0 0 1 1 1 1 1 1 1 1 1 1 1 1 1 1 1 1 1 1 1 1 1 1
-2 -2 -1 -1 -1 -1 -1 -1 -1 0 -0 0 -0 -2 -3 -1 -1 -0 -0 0 0 0 1 1 1 1 1 1 1 1 1 1 1 1 1 1 1 1 0 0 0 0 1 1
-1 -2 -1 -1 -1 -1 -1 -1 -2 -1 -2 -1 -2 -2 -2 -2 -2 -2 -2 -1 -1 -1 -0 -0 0 0 0 1 1 1 1 1 1 1 1 1 1 1 1 0 0 0 0 0
-0 -1 -2 -1 -1 -1 -0 -1 -1 -1 -1 -1 -1 -1 -1 -1 -2 -2 -3 -3 -3 -3 -2 -2 -2 -2 -2 -2 -1 -1 -0 0 0 -0 -0 -0 0 0 0 0 0 -0 0 0
-1 -1 -1 -1 -1 -0 -1 -1 -1 -1 -1 -1 -1 -1 -1 -1 -1 -1 -0 -1 -1 -2 -3 -3 -3 -2 -2 -2 -2 -2 -2 -1 -1 -0 -0 -1 -1 -1 -1 -1 -0 -0 -0 -0
-1 -2 -2 -1 0 -1 -1 -0 -1 -0 -0 -0 -0 -0 -1 -1 -1 -2 -0 -1 -1 -1 -1 -1 -1 -1 -2 -2 -2 -2 -2 -1 -2 -2 -1 -1 -1 -1 -1 -1 -1 -1 -1 -1
-1 -1 -2 -2 -0 2 -1 -0 -1 -2 -2 -0 -1 -1 -1 -2 -2 -3 -2 -1 -1 -1 -0 -0 -0 -1 -1 -2 -3 -3 -4 -4 -4 -3 -3 -4 -4 -3 -2 -2 -2 -2 -2 -2
-2 -1 -2 -1 -1 -1 0 -0 -1 -2 -1 -1 -1 -1 -1 -1 -1 -1 -1 -1 -1 -1 -1 -1 -2 -2 -2 -3 -3 -4 -5 -5 -5 -5 -4 -4 -4 -5 -5 -4 -3 -2 -2 -2
-2 -2 -1 -2 -2 -1 0 -0 -1 -0 -1 -1 -1 -1 -1 -1 -1 -1 -1 -1 -1 -1 -2 -2 -2 -2 -3 -3 -4 -4 -5 -5 -5 -6 -5 -5 -5 -5 -5 -6 -5 -4 -3 -3
-2 -1 -1 -1 -1 0 0 0 -0 -1 -1 -1 -1 -1 -1 -1 -1 -1 -1 -1 -1 -1 -2 -3 -3 -4 -4 -4 -5 -5 -5 -6 -5 -5 -5 -6 -6 -6 -6 -5 -6 -5 -4 -3
-1 -1 -1 -0 0 0 0 0 -0 -1 -1 -0 -0 -1 -1 -1 -1 -1 -2 -2 -2 -2 -3 -3 -4 -4 -5 -5 -6 -6 -6 -6 -6 -6 -6 -6 -7 -7 -7 -6 -5 -5 -5 -4
-2 -0 -0 1 1 0 0 0 0 -0 -0 -0 -1 -1 -1 -1 -2 -2 -2 -2 -3 -3 -4 -5 -5 -5 -5 -6 -6 -6 -7 -7 -7 -7 -8 -8 -7 -7 -7 -7 -5 -5 -5 -4
1 1 1 0 1 1 1 0 -0 -1 -1 -1 -2 -2 -2 -2 -2 -3 -3 -3 -4 -4 -5 -6 -6 -6 -6 -6 -6 -6 -7 -8 -8 -8 -8 -8 -8 -7 -7 -7 -5 -5 -5 -4
Height
3024 3022 3018 3019 3018 3015 3015 3013 3010 3009 3012 3014 3019 3023 3026 3029 3029 3031 3031 3034 3038 3041 3050 3054 3055 3055 3057 3060 3063 3065 3071 3077 3086 3093 3099 3105 3112 3116 3121 3125 3128 3132 3134 3137
3019 3014 3015 3014 3012 3011 3009 3007 3005 3005 3009 3015 3018 3021 3024 3025 3025 3027 3029 3031 3034 3037 3043 3045 3048 3050 3053 3058 3063 3067 3070 3076 3084 3091 3097 3102 3107 3113 3117 3120 3123 3126 3130 3132
3014 3012 3011 3010 3008 3007 3005 3002 3004 3002 3009 3013 3017 3021 3021 3020 3020 3022 3027 3030 3032 3037 3037 3039 3044 3047 3052 3055 3060 3065 3068 3073 3081 3087 3091 3095 3102 3106 3111 3115 3118 3122 3124 3127
3010 3009 3007 3007 3006 3007 3005 3004 3001 3003 3009 3009 3013 3016 3018 3015 3016 3020 3025 3025 3027 3032 3037 3040 3043 3046 3052 3054 3055 3061 3067 3073 3076 3081 3085 3092 3096 3101 3106 3109 3112 3118 3120 3121
3014 3009 3007 3008 3007 3008 3008 3005 3004 3006 3005 3005 3010 3010 3013 3012 3013 3015 3018 3020 3023 3033 3039 3043 3045 3046 3049 3049 3047 3058 3065 3070 3074 3078 3080 3085 3090 3098 3103 3105 3108 3110 3112 3114
3012 3009 3010 3010 3010 3009 3006 3007 3005 3001 3005 3005 3006 3008 3011 3010 3010 3014 3017 3022 3026 3032 3037 3040 3044 3047 3047 3053 3053 3057 3063 3068 3074 3078 3081 3082 3086 3092 3099 3102 3102 3105 3106 3109
3015 3012 3012 3012 3013 3009 3009 3005 3005 3004 3005 3006 3005 3005 3013 3011 3008 3011 3014 3018 3027 3030 3035 3041 3045 3048 3050 3055 3059 3063 3066 3071 3074 3074 3077 3082 3089 3086 3092 3096 3096 3098 3101 3100
3019 3018 3016 3014 3012 3010 3010 3010 3008 3006 3007 3008 3009 3015 3017 3013 3012 3014 3014 3022 3027 3031 3037 3044 3048 3052 3054 3059 3061 3064 3066 3069 3071 3074 3076 3077 3083 3084 3085 3089 3089 3090 3090 3092
3021 3019 3017 3017 3015 3015 3013 3013 3010 3008 3008 3012 3020 3019 3020 3022 3015 3017 3020 3028 3031 3037 3044 3046 3050 3055 3059 3062 3065 3067 3066 3068 3071 3073 3074 3077 3079 3080 3082 3083 3085 3085 3087 3090
3024 3022 3019 3020 3017 3016 3015 3015 3014 3010 3006 3013 3024 3025 3026 3028 3024 3022 3024 3030 3037 3043 3046 3049 3054 3058 3060 3062 3062 3060 3061 3063 3064 3067 3070 3072 3073 3076 3078 3079 3081 3083 3084 3085
3025 3025 3025 3023 3021 3018 3014 3012 3011 3010 3010 3010 3018 3033 3034 3033 3035 3035 3035 3036 3041 3045 3048 3051 3054 3055 3056 3058 3058 3058 3056 3058 3060 3062 3064 3065 3065 3068 3071 3074 3073 3077 3077 3079
3028 3028 3028 3027 3025 3023 3022 3022 3020 3017 3016 3013 3018 3038 3037 3036 3038 3042 3040 3040 3043 3043 3044 3044 3046 3048 3051 3052 3052 3054 3054 3054 3056 3058 3058 3059 3059 3063 3065 3066 3066 3068 3070 3071
3031 3032 3031 3029 3029 3027 3026 3024 3022 3021 3020 3021 3021 3041 3042 3041 3039 3038 3038 3042 3045 3046 3045 3045 3047 3049 3050 3051 3052 3052 3051 3051 3053 3053 3052 3052 3055 3057 3059 3058 3059 3061 3062 3063
3032 3032 3032 3032 3032 3030 3029 3027 3025 3024 3027 3027 3031 3039 3045 3045 3044 3046 3045 3048 3051 3049 3047 3047 3052 3051 3049 3050 3052 3052 3051 3051 3051 3050 3049 3049 3050 3052 3052 3052 3052 3053 3053 3055
3035 3033 3033 3033 3033 3032 3030 3029 3030 3029 3032 3035 3039 3041 3042 3044 3048 3050 3053 3051 3046 3043 3042 3047 3049 3049 3051 3049 3048 3048 3047 3048 3046 3046 3045 3045 3046 3045 3045 3046 3046 3045 3045 3047
3038 3039 3037 3036 3036 3034 3033 3032 3033 3033 3036 3038 3039 3040 3041 3041 3041 3042 3044 3043 3044 3045 3049 3048 3046 3046 3044 3042 3040 3039 3038 3036 3037 3036 3037 3038 3038 3039 3038 3038 3038 3038 3037 3039
3037 3039 3040 3041 3039 3038 3038 3036 3035 3036 3037 3038 3041 3041 3041 3041 3041 3040 3039 3039 3039 3043 3043 3042 3040 3040 3039 3037 3035 3031 3030 3028 3027 3025 3025 3025 3026 3027 3027 3028 3029 3030 3031 3031
3041 3041 3041 3041 3041 3041 3040 3039 3038 3038 3039 3039 3039 3039 3039 3038 3037 3036 3036 3036 3036 3036 3035 3030 3025 3024 3023 3019 3018 3016 3017 3017 3017 3015 3015 3015 3014 3013 3014 3016 3018 3019 3021 3022
3041 3041 3043 3043 3043 3043 3039 3039 3040 3039 3040 3039 3040 3040 3039 3039 3038 3034 3035 3033 3029 3025 3022 3019 3016 3013 3008 3005 3004 3002 3002 3001 3001 3001 3000 3001 3001 2999 3000 3003 3004 3005 3007 3010
3042 3042 3044 3042 3042 3039 3038 3037 3038 3039 3040 3039 3039 3039 3038 3037 3036 3035 3030 3027 3024 3021 3016 3012 3009 3006 3002 2998 2993 2989 2986 2984 2984 2984 2983 2981 2981 2985 2986 2989 2990 2992 2994 2996
3042 3041 3042 3041 3040 3039 3036 3037 3039 3041 3043 3038 3038 3037 3036 3035 3034 3030 3028 3026 3022 3017 3013 3009 3004 3000 2995 2988 2983 2979 2976 2973 2969 2966 2966 2968 2971 2972 2970 2971 2974 2977 2980 2982
3041 3041 3039 3038 3038 3038 3035 3036 3037 3037 3035 3035 3034 3033 3032 3030 3027 3025 3021 3018 3013 3009 3004 3000 2995 2991 2987 2981 2974 2968 2963 2958 2954 2952 2951 2952 2952 2953 2957 2961 2961 2963 2965 2968
3039 3038 3038 3037 3036 3034 3034 3034 3033 3033 3032 3031 3030 3029 3028 3025 3023 3020 3017 3013 3008 3003 2997 2992 2987 2982 2978 2972 2966 2958 2953 2947 2944 2939 2935 2935 2935 2937 2940 2944 2949 2949 2952 2955
3034 3034 3033 3033 3031 3031 3031 3031 3031 3030 3029 3028 3027 3026 3024 3022 3018 3016 3012 3007 3003 2997 2992 2987 2982 2976 2970 2964 2957 2950 2943 2937 2931 2924 2920 2919 2919 2924 2925 2928 2934 2936 2940 2943
3033 3031 3030 3029 3029 3029 3029 3029 3028 3027 3026 3025 3024 3022 3020 3017 3015 3011 3006 3002 2996 2990 2985 2980 2974 2968 2963 2956 2950 2942 2935 2928 2920 2915 2910 2908 2909 2911 2913 2915 2921 2924 2928 2932
3026 3026 3026 3026 3026 3026 3026 3026 3025 3024 3023 3021 3019 3017 3015 3012 3009 3005 3001 2994 2989 2983 2977 2972 2967 2961 2955 2948 2941 2933 2927 2919 2913 2908 2904 2901 2901 2901 2903 2906 2908 2913 2917 2920
Wind_Speed
14 17 21 16 19 21 22 16 18 19 22 23 26 22 20 15 18 24 21 28 30 31 26 28 33 28 29 26 33 40 44 43 38 31 33 35 36 36 36 35 32 30 29 30
20 23 15 17 17 17 23 18 21 16 20 23 22 17 15 16 19 24 23 27 33 35 26 30 32 37 27 28 35 39 41 44 41 36 32 31 29 30 35 35 33 31 31 28
19 17 14 14 11 15 19 23 19 14 24 18 17 11 13 14 15 17 22 19 32 31 24 24 32 32 32 27 33 44 43 48 46 36 33 31 30 33 30 34 34 33 30 30
7 8 10 8 13 12 15 15 15 29 25 13 19 7 6 13 14 11 24 17 15 20 21 26 16 17 26 28 23 45 42 57 43 38 32 37 31 30 33 34 32 31 30 30
4 2 3 7 7 11 9 8 11 17 10 17 11 4 6 4 6 13 22 15 15 16 20 19 21 6 8 6 20 33 33 29 32 55 39 35 33 36 30 35 40 37 35 32
4 2 1 1 4 10 5 6 9 5 7 6 7 3 14 9 1 11 14 14 18 19 17 7 7 7 12 10 10 13 8 4 3 17 34 55 45 37 41 33 33 38 36 43
6 4 2 4 4 9 8 7 2 1 3 4 10 9 11 14 8 11 20 22 20 18 15 12 9 4 2 2 8 6 5 11 13 14 17 9 16 18 47 48 47 54 53 52
4 3 3 4 4 3 6 6 5 3 2 5 13 11 10 15 13 15 22 24 21 18 14 13 12 9 6 4 6 10 13 14 16 18 23 22 22 23 26 27 23 21 20 21
2 4 9 2 2 8 6 4 2 3 14 8 5 10 17 14 23 20 23 23 18 17 14 10 7 7 9 8 9 11 11 13 14 14 16 18 19 19 18 21 21 20 22 25
7 3 6 8 5 10 7 6 1 2 2 6 6 8 9 15 18 21 20 17 13 10 7 12 13 11 12 14 17 19 20 20 20 21 23 25 26 27 28 27 26 25 24 24
6 3 3 5 8 10 10 10 7 5 4 3 5 8 7 9 15 17 21 21 19 17 16 14 14 14 14 15 15 17 19 19 21 23 25 27 28 29 31 32 31 32 32 31
8 6 4 6 6 8 11 10 6 5 3 6 13 7 6 10 14 13 16 15 13 11 9 8 8 9 10 11 12 13 14 18 21 23 23 23 24 27 29 32 32 33 33 31
8 3 2 4 5 10 6 13 12 7 8 6 1 10 10 8 10 9 12 10 8 7 6 4 4 5 6 7 8 11 13 15 17 19 20 22 23 24 26 27 29 30 30 29
6 3 3 6 3 5 8 13 15 11 14 15 18 19 9 8 7 6 4 2 2 3 3 5 9 10 12 14 15 15 15 16 17 17 19 22 25 26 26 26 27 29 29 30
8 9 10 10 7 8 8 10 13 16 10 15 16 13 8 6 5 5 7 8 9 9 11 15 17 18 21 23 24 25 27 27 26 26 26 26 26 26 27 29 30 31 31 29
8 7 8 7 6 6 7 7 9 10 13 12 9 5 3 1 3 4 2 2 5 7 12 15 18 22 24 27 28 29 31 32 34 35 36 37 37 36 34 32 31 29 29 30
5 3 3 2 3 3 2 4 5 4 4 6 2 2 2 4 6 7 8 9 10 10 13 16 19 21 23 24 26 28 30 32 35 37 38 39 41 42 43 41 40 38 36 33
5 4 2 1 3 2 3 1 0 1 1 1 1 4 6 9 12 15 15 17 20 24 27 28 29 29 29 30 31 33 34 35 36 36 38 40 42 44 45 45 47 47 45 42
3 3 1 2 4 3 7 7 6 3 3 3 3 3 5 8 12 17 19 23 26 29 31 32 32 33 33 34 34 35 34 37 40 42 43 43 44 46 47 48 48 47 46 46
3 2 1 2 2 2 3 4 4 2 5 4 0 4 8 11 14 15 25 27 30 34 37 40 41 40 41 40 39 39 37 36 40 48 48 50 49 51 50 48 48 46 45 45
3 4 4 4 3 3 6 4 4 2 1 4 8 10 13 16 19 23 26 28 32 35 38 38 38 39 41 43 43 42 39 36 36 36 38 48 51 54 48 46 47 46 45 44
3 3 3 3 3 3 5 6 4 4 5 9 12 14 17 21 25 28 31 33 36 39 41 42 43 42 40 40 42 43 43 42 42 41 42 42 40 43 53 48 45 45 45 46
4 8 4 7 6 5 5 7 8 8 10 12 15 19 22 26 29 32 34 36 39 43 45 44 43 42 41 42 43 44 44 42 47 46 47 49 44 40 42 51 46 45 43 47
13 14 14 10 7 11 13 13 11 13 14 17 19 22 26 29 32 34 35 37 40 41 41 40 40 40 39 40 42 43 43 45 47 46 43 42 42 37 39 44 47 44 43 45
15 13 13 16 16 15 14 14 16 17 19 21 22 23 26 30 33 34 35 37 38 39 39 37 36 38 38 39 40 39 39 40 40 36 32 28 29 34 38 42 42 42 41 42
21 20 20 17 14 14 15 16 17 19 21 22 22 24 29 31 33 34 35 37 38 39 37 35 33 35 37 38 40 39 35 34 32 29 27 26 32 32 34 41 31 37 39 39
Wind_Direction
259 266 256 270 269 284 268 276 268 250 213 207 204 217 225 234 239 242 235 240 247 227 236 221 213 222 227 223 204 210 188 182 185 189 193 198 202 204 205 208 213 218 224 229
243 269 285 278 271 266 249 257 259 229 204 188 196 210 229 244 257 249 241 223 233 227 238 222 211 218 231 221 209 200 192 183 185 187 185 191 195 206 211 214 218 220 225 227
258 273 280 288 245 235 241 249 261 221 167 188 178 203 217 234 235 243 229 228 219 223 234 229 242 233 229 205 221 207 204 197 183 189 192 189 195 206 210 215 220 224 223 230
286 319 265 218 233 223 255 259 247 145 163 165 177 152 191 239 237 237 220 251 230 221 225 221 215 206 228 243 226 211 199 202 196 197 203 202 210 216 217 220 221 225 229 231
8 27 163 198 229 223 243 284 239 188 176 132 185 214 74 94 185 213 244 243 225 213 200 229 230 240 155 143 188 204 196 210 221 207 209 218 227 230 229 228 233 233 232 240
60 55 91 210 273 224 310 224 214 219 179 81 43 206 66 29 47 168 211 196 201 205 206 194 192 67 31 53 83 147 109 186 182 204 218 219 234 230 232 240 247 242 243 247
51 12 71 129 179 266 275 245 126 103 53 52 20 41 44 27 149 178 161 152 182 178 173 171 135 125 116 144 200 190 214 220 231 237 242 210 223 239 236 251 252 249 248 248
35 278 209 193 303 291 148 323 339 64 70 91 35 15 22 40 74 150 132 140 152 143 144 148 146 145 146 167 190 218 223 229 236 240 256 237 244 240 240 250 256 254 255 246
346 28 119 129 83 8 21 8 105 97 103 87 48 4 45 51 68 99 103 134 142 144 156 143 169 237 218 230 239 243 246 255 252 246 244 251 253 255 257 257 260 252 250 254
44 44 99 88 29 21 34 357 257 2 74 81 95 42 44 53 61 76 101 115 128 153 186 211 215 230 236 243 251 260 263 261 260 260 260 259 260 263 262 258 257 256 255 254
42 56 156 55 32 26 12 3 349 356 6 106 124 72 47 84 79 85 104 117 135 149 157 175 201 219 232 240 243 246 250 251 250 253 253 255 256 257 258 257 258 257 259 262
78 64 109 106 47 28 52 24 8 333 16 32 94 73 83 92 106 99 113 119 134 141 159 181 204 222 237 247 252 253 249 253 256 255 254 256 258 258 258 259 259 261 263 263
92 91 103 324 340 23 32 15 17 61 64 17 33 123 110 85 82 113 125 134 140 151 159 178 215 229 244 251 253 255 259 258 254 253 254 256 257 258 260 260 258 259 260 260
88 82 44 70 42 16 13 25 36 86 64 78 104 119 100 93 132 131 122 161 215 245 253 257 259 271 278 278 272 271 271 269 270 268 262 259 259 261 260 257 256 258 260 261
96 79 93 88 82 66 52 46 50 69 65 111 127 116 110 150 161 178 215 240 263 276 282 276 273 271 269 272 276 279 280 277 275 273 271 269 268 265 261 260 259 258 259 260
101 114 93 60 52 43 39 46 57 77 81 113 130 119 147 52 9 344 325 301 285 273 270 273 275 275 277 278 278 276 273 272 269 268 268 269 269 267 266 264 261 259 257 253
99 91 84 91 55 39 333 8 53 75 92 115 169 264 295 335 336 329 325 323 320 308 304 300 295 291 287 285 281 278 277 278 278 277 272 268 263 262 264 262 260 259 255 253
124 125 108 352 10 355 276 251 169 113 96 100 322 334 336 330 332 328 327 324 319 313 310 310 309 306 302 299 292 287 283 280 276 271 270 271 270 265 260 258 258 257 256 254
149 124 234 215 217 231 230 224 196 184 252 262 285 329 337 334 332 320 327 323 317 315 317 316 313 313 315 311 301 291 282 275 270 266 263 260 261 263 264 260 257 256 255 255
246 220 264 249 245 253 216 198 190 262 279 132 163 315 316 321 323 313 325 323 322 322 320 318 319 321 320 316 311 306 300 286 274 268 264 253 250 249 252 257 257 255 253 253
281 260 242 262 275 273 257 220 187 191 229 303 320 323 320 325 327 323 323 322 321 320 319 319 319 321 319 316 312 309 304 299 292 281 272 271 267 254 253 249 250 250 249 246
253 238 238 212 243 259 223 217 219 243 277 303 314 318 326 329 327 328 326 326 323 322 322 322 322 320 318 316 313 312 307 303 300 294 285 270 268 266 251 253 250 247 245 245
265 220 217 221 234 260 244 258 269 283 299 312 315 322 324 324 326 325 324 322 322 322 321 321 320 319 321 317 315 311 310 304 300 292 290 279 265 261 250 246 247 249 244 241
277 266 255 272 270 271 270 278 284 297 305 309 311 314 316 321 321 320 320 319 319 318 317 317 318 318 320 317 318 315 309 306 303 298 293 279 264 258 248 242 246 245 245 240
260 275 268 269 274 276 278 281 285 291 294 300 301 305 313 314 317 317 316 316 314 314 317 321 324 322 319 315 317 312 310 308 308 294 292 272 258 254 248 243 242 243 245 242
276 268 261 270 270 273 282 282 285 287 291 295 294 306 311 314 315 313 315 313 314 315 317 322 325 324 318 314 317 316 313 313 306 305 294 276 261 266 253 247 241 241 243 236